This is the latest recevied weather packets stored in our database for station/object KC3WWU. If no packets are shown the sender has not sent any weather packets the latest 10 day(s).
| Time | Temp. | Humidity | Pressure | Rain* | Wind** | Luminosity | Snow |
|---|---|---|---|---|---|---|---|
| 1777569898 | 6.11° C | 99% | 1008.4 hPa | 0 mm | - | 298 W/m² | - |
| 1777569595 | 6.11° C | 99% | 1008.6 hPa | 0 mm | - | 156 W/m² | - |
| 1777569291 | 6.11° C | 99% | 1008.4 hPa | 0 mm | - | 97 W/m² | - |
| 1777568988 | 6.11° C | 99% | 1008.1 hPa | 0 mm | - | 74 W/m² | - |
| 1777568684 | 6.67° C | 99% | 1008.6 hPa | 0 mm | - | 68 W/m² | - |
| 1777568382 | 7.22° C | 99% | 1008.2 hPa | 1.27 mm | - | 157 W/m² | - |
| 1777568078 | 7.22° C | 99% | 1008.4 hPa | 3.05 mm | - | 133 W/m² | - |
| 1777567775 | 7.22° C | 99% | 1008.2 hPa | 3.05 mm | - | 152 W/m² | - |
| 1777567471 | 7.78° C | 99% | 1008 hPa | 0 mm | - | 151 W/m² | - |
| 1777567169 | 7.78° C | 99% | 1008 hPa | 0 mm | - | 326 W/m² | - |
| 1777566867 | 7.22° C | 99% | 1008.4 hPa | 1.27 mm | - | 339 W/m² | - |
| 1777566565 | 7.22° C | 99% | 1008 hPa | 4.32 mm | - | 225 W/m² | - |
| 1777566262 | 7.22° C | 98% | 1008.4 hPa | 6.6 mm | - | 210 W/m² | - |
| 1777565959 | 7.78° C | 98% | 1008.1 hPa | 6.6 mm | - | 175 W/m² | - |
| 1777565654 | 8.33° C | 98% | 1008.1 hPa | 3.05 mm | - | 58 W/m² | - |
| 1777565351 | 8.33° C | 97% | 1007.9 hPa | 0 mm | - | 164 W/m² | - |
| 1777565047 | 8.33° C | 96% | 1007.8 hPa | 0 mm | - | 236 W/m² | - |
| 1777564743 | 8.33° C | 95% | 1007.8 hPa | 0 mm | - | 222 W/m² | - |
| 1777564438 | 8.33° C | 93% | 1007.8 hPa | 0 mm | - | 107 W/m² | - |
| 1777564134 | 8.33° C | 92% | 1007.8 hPa | 0 mm | - | 169 W/m² | - |
| 1777563830 | 8.33° C | 92% | 1007.8 hPa | 0 mm | - | 155 W/m² | - |
| 1777563527 | 8.33° C | 92% | 1007.8 hPa | 0 mm | - | 67 W/m² | - |
| 1777563226 | 8.33° C | 91% | 1007.9 hPa | 0 mm | - | 78 W/m² | - |
| 1777562923 | 8.89° C | 91% | 1007.8 hPa | 0 mm | - | 107 W/m² | - |
| 1777562619 | 9.44° C | 93% | 1007.5 hPa | 0 mm | - | 176 W/m² | - |
* Rain latest hour (hover to see other rain measurements)
** Current wind speed in m/s (hover to see current wind gust speed)